Flag Weather past 2 weeks in Dijon, France

Now
48 °F

Low clouds.


Feels Like: 48 °F
Forecast: 45 / 55 °F
Wind: 2 mph from Northeast

Location: Dijon Airport

Current Time: Nov 26, 2014 at 5:42:21 AM

Latest Report: Nov 26, 2014 at 5:00 AM


Visibility: 4 mi

Pressure: 29.95 "Hg

Humidity: 94%

Dew point: 46 °F

Location of DijonLocation

Historic Weather in Dijon — Graph

°F

Dijon temperature yesterday

Maximum temperature yesterday: 55 °F (at 12:30 PM)
Minimum temperature yesterday: 48 °F (at 4:30 AM)
Average temperature yesterday: 51 °F

Past Weeks' High & Low Weather Summary

 TemperatureHumidityPressure
High61 °F (Nov 11, 2:30 PM)100% (Nov 11, 3:00 AM)30.24 "Hg (Nov 11, 3:00 AM)
Low34 °F (Nov 13, 3:30 AM)72% (Nov 22, 2:30 PM)29.56 "Hg (Nov 16, 2:00 PM)
Average47 °F94%29.89 "Hg
* Reported Nov 11 3:00 AM — Nov 26 3:30 AM, Dijon, Weather by CustomWeather, © 2014

Note: Actual official high and low records may vary slightly from our data, if they occured in-between our weather recording intervals... More about our weather records

Advertising

Dijon weather history for previous 24 hours

 ConditionsComfort  
Time TempWeatherWind HumidityBarometerVisibility
3:30 AM
Nov 26
48 °FLow clouds.2 mph94%29.95 "Hg5 mi
3:00 AM48 °FLow clouds.2 mph94%29.98 "Hg6 mi
2:30 AM48 °FOvercast.3 mph94%29.98 "Hg6 mi
2:00 AM48 °FPassing clouds.2 mph94%29.98 "Hg4 mi
1:30 AM48 °FOvercast.2 mph94%29.98 "HgN/A
1:00 AM48 °FMostly cloudy.3 mph94%29.98 "HgN/A
12:30 AM48 °FOvercast.3 mph94%30.01 "HgN/A
12:00 AM48 °FOvercast.3 mph94%30.01 "Hg6 mi
11:30 PM
Nov 25
50 °FMostly cloudy.3 mph88%30.01 "HgN/A
11:00 PM50 °FMostly cloudy.3 mph88%30.01 "HgN/A
10:30 PM50 °FClear.5 mph94%30.01 "HgN/A
10:00 PM50 °FClear.5 mph94%30.01 "HgN/A
9:30 PM50 °FClear.5 mph94%30.01 "HgN/A
9:00 PM50 °FClear.5 mph94%30.01 "HgN/A
8:30 PM50 °FClear.5 mph94%30.01 "HgN/A
8:00 PM50 °FClear.No wind94%30.01 "HgN/A
7:30 PM50 °FClear.1 mph94%30.01 "HgN/A
7:00 PM50 °FClear.No wind94%30.01 "HgN/A
6:30 PM50 °FCool.2 mph94%30.01 "HgN/A
6:00 PM50 °FClear.No wind94%30.04 "HgN/A
5:30 PM52 °FClear.No wind88%30.04 "HgN/A
5:00 PM52 °FClear.No wind88%30.04 "HgN/A
4:30 PM54 °FClear.No wind82%30.04 "HgN/A
4:00 PM54 °FClear.3 mph82%30.04 "HgN/A
3:30 PM54 °FMostly cloudy.3 mph88%30.04 "HgN/A
3:00 PM54 °FMostly cloudy.3 mph82%30.04 "HgN/A
2:30 PM55 °FClear.2 mph82%30.04 "HgN/A
2:00 PM55 °FClear.2 mph77%30.07 "HgN/A
1:30 PM55 °FClear.3 mph77%30.07 "HgN/A
1:00 PM55 °FClear.5 mph77%30.07 "HgN/A
12:30 PM55 °FPartly sunny.2 mph77%30.07 "HgN/A
12:00 PM54 °FPartly sunny.5 mph82%30.09 "HgN/A
11:30 AM52 °FPassing clouds.5 mph88%30.09 "HgN/A
11:00 AM52 °FBroken clouds.7 mph88%30.09 "HgN/A
10:30 AM52 °FPartly sunny.7 mph88%30.09 "HgN/A
10:00 AM50 °FMostly cloudy.7 mph88%30.09 "HgN/A
9:30 AM50 °FLow clouds.7 mph94%30.09 "HgN/A
9:00 AM50 °FClear.7 mph88%30.09 "Hg5 mi
8:30 AM48 °FLow clouds.7 mph94%30.09 "Hg4 mi
8:00 AM48 °FLow clouds.8 mph94%30.09 "Hg4 mi
7:30 AM48 °FLow clouds.7 mph94%30.09 "Hg4 mi
7:00 AM48 °FOvercast.7 mph100%30.09 "Hg4 mi
6:30 AM48 °FOvercast.6 mph100%30.12 "Hg4 mi
6:00 AM50 °FLow clouds.7 mph94%30.12 "Hg4 mi
5:30 AM48 °FFog.7 mph100%30.12 "Hg3 mi
Weather by CustomWeather, © 2014

See weather overviewHow to use our weather pages